Location: Capannuccia
(43.7000°N, 11.3000°E)
Time: 23:31:53
(UTC+00:00)

STARLINK-2521 - Pass Details

Date: 30 July 2021
Orbit: 546 x 548 km, 53.1° (Epoch: 20 September)

Event Time Altitude Azimuth Distance (km) Brightness Sun altitude
Rises 19:40:43 0° 303° (WNW) 2,723 9.4 -10.1°
Reaches altitude 10° 19:42:58 10° 299° (WNW) 1,826 7.8 -10.4°
Maximum altitude 19:47:04 60° 220° (SW) 630 3.9 -11.0°
Enters shadow 19:50:12 16° 143° (SE) 1,459 5.2 -11.4°
